Location: Lake Almanor
(40.2485°N, 121.1442°W)
Time: 07:42:10
(UTC-08:00)

STARLINK-1109 - Pass Details

Date: 30 January 2020
Orbit: 349 x 351 km, 53.0° (Epoch: 18 February)

Event Time Altitude Azimuth Distance (km) Brightness Sun altitude
Rises 19:21:34 0° 307° (NW) 2,164 7.4 -23.2°
Reaches altitude 10° 19:23:35 10° 305° (NW) 1,318 6.2 -23.6°
Enters shadow 19:24:50 23° 301° (WNW) 817 5.1 -23.9°
